Location: Banff
(51.1667°N, 115.5667°W)
Time: 05:02:14
(UTC+00:00)

Vanguard 2 Rocket - Visible Passes

Search period start: 27 November 2020 00:00
Search period end: 07 December 2020 00:00
Orbit: 554 x 3326 km, 32.9° (Epoch: 26 November)

Date Brightness Start Highest point End Pass type
(mag) Time Alt. Az. Time Alt. Az. Time Alt. Az.
27 Nov 11.3 14:35:51 10° SSW 14:50:19 26° SSE 15:03:00 10° ESE visible
28 Nov 11.3 13:37:02 10° S 13:49:30 21° SE 14:01:16 10° ESE visible
29 Nov 11.3 12:39:54 10° SSE 12:48:55 15° SE 12:57:54 10° ESE visible
30 Nov 11.1 13:47:31 10° SSW 14:02:08 27° SSE 14:16:06 10° E visible
01 Dec 11.1 12:48:58 10° S 13:01:21 21° SE 13:13:56 10° E visible
02 Dec 11.1 11:52:05 10° SSE 12:00:53 15° SE 12:10:07 10° ESE visible
02 Dec 10.9 13:59:00 10° SSW 14:14:50 33° SSE 14:30:15 10° E visible
03 Dec 10.9 12:59:46 10° SSW 13:13:51 27° SSE 13:28:35 10° E visible
04 Dec 10.9 12:01:33 10° S 12:13:11 21° SE 12:25:57 10° E visible
04 Dec 10.8 14:11:08 10° SW 14:27:36 38° SSE 14:44:01 10° ESE visible
05 Dec 10.9 11:05:04 10° SSE 11:12:56 15° SE 11:21:34 10° ESE visible
05 Dec 10.7 13:11:30 10° SSW 13:26:26 33° SSE 13:42:35 10° E visible
06 Dec 10.7 12:12:37 10° SSW 12:25:36 27° SE 12:40:28 10° E visible
06 Dec 10.6 14:23:44 10° SW 14:40:27 41° SSE 14:57:32 10° ESE visible
